Location: Unspecified
(48.7670°N, 0.0000°E)
Time: 05:04:40
(UTC+00:00)

Altair - Pass Details

Date: 25 June 2019
Orbit: 1501 x 1683 km, 47.2° (Epoch: 16 August)

Event Time Altitude Azimuth Distance (km) Brightness Sun altitude
Rises 17:11:59 0° 193° (SSW) 4,652 10.1 25.5°
Reaches altitude 10° 17:15:44 10° 180° (S) 3,694 9.5 24.9°
Maximum altitude 17:22:39 24° 131° (SE) 2,804 8.6 23.8°
Drops below altitude 10° 17:29:45 10° 83° (E) 3,809 9.1 22.6°
Sets 17:33:39 0° 71° (ENE) 4,828 9.6 22.0°
